Regional Weather Roundup
Issued by NWS

Home | Current Version | Previous Version | Text Only | Print | Product List | Glossary Off
Versions: 1 2 3 4 5 6 7 8 9 10 11 12 13 14 15 16 17 18 19 20 21 22 23 24 25 26 27 28 29 30 31 32 33 34 35 36 37 38 39 40 41 42 43 44 45 46 47 48 49 50

000
ASUS45 KSLC 301210
RWRUT

UTAH REGIONAL WEATHER ROUNDUP
NATIONAL WEATHER SERVICE SALT LAKE CITY UT
600 AM MDT MON MAY 30 2016

UTZ001>011-023>025-301300-

NORTHERN UTAH

CITY           SKY/WX    TMP DP  RH WIND       PRES   REMARKS
BRIGHAM CITY     N/A     58  47  66 N3        30.10S
HILL AFB       PTCLDY    54  44  71 SE9       30.11R
LOGAN          PTCLDY    50  46  86 CALM      30.10S
OGDEN          PTCLDY    53  46  77 S5        30.10R
PROVO AIRPORT  PTCLDY    52  43  71 CALM      30.11F
SALT LAKE CITY PTCLDY    56  46  69 S7        30.09R
VERNAL         CLOUDY    50  39  66 SE3       30.11R
WENDOVER       CLEAR     54  43  66 SW3       30.09R
HEBER CITY     MOCLDY    45  41  87 CALM      30.17F
WEST JORDAN    CLEAR     52  46  82 SW7       30.11F

$$

UTZ012>022-026-027-301300-

SOUTHERN/CENTRAL UTAH

CITY           SKY/WX    TMP DP  RH WIND       PRES   REMARKS
BLANDING       PTCLDY    49  29  46 N5        30.16R
BRYCE CANYON   MOCLDY    38  30  73 W7        30.21R WCI  33
CEDAR CITY     CLEAR     44  34  67 E5        30.11R
DELTA          CLOUDY    57  43  58 SW8       30.10R
HANKSVILLE     MOCLDY    52  30  43 NW7       30.06R
MILFORD        MOCLDY    52  41  66 NW7       30.10S
MOAB/CYNLANDS  MOCLDY    57  34  41 W3        30.02R
PRICE          MOCLDY    55  35  47 N8        30.13R
ST GEORGE      PTSUNNY   66  27  22 NW3       29.98R
KANAB          PTCLDY    50  36  57 E5        30.10

$$

REGIONAL REPORTS     COLORADO/ARIZONA

CITY           SKY/WX    TMP DP  RH WIND       PRES   REMARKS
CRAIG, CO      CLOUDY    37  34  89 CALM      30.16R
GRAND JUNCTION CLOUDY    48  37  65 SE5       30.06R
RIFLE          CLOUDY    40  34  79 S7        30.12S
MONTROSE       CLOUDY    45  31  58 S7        30.13S
CORTEZ         CLOUDY    38  27  64 E6        30.12R WCI  33
PAGE, AZ       CLEAR     62  24  23 S3        30.00R
GRAND CANYON   CLEAR     31  15  52 E3        30.17S
KINGMAN        CLEAR     54  22  28 S3        29.97S
FLAGSTAFF      CLEAR     37  19  48 SW3       30.18S

$$

REGIONAL REPORTS    NEVADA/IDAHO/WYOMING

CITY           SKY/WX    TMP DP  RH WIND       PRES   REMARKS
LAS VEGAS, NV  PTCLDY    70  27  20 W3        29.87R
ELY            CLEAR     36  32  85 S7        30.18R WCI  30
ELKO           CLEAR     47  40  76 CALM      30.13R
POCATELLO, ID  PTCLDY    47  42  83 CALM      30.08R
BURLEY         PTCLDY    54  40  59 W13G22    30.07R
EVANSTON, WY   CLOUDY    44  39  82 SW8       30.19S
ROCK SPRINGS   CLOUDY    45  39  79 SW13      30.16R
KEMMERER         N/A     41  37  87 CALM      30.20S

$$



USA.gov is the U.S. government's official web portal to all federal, state and local government web resources and services.